Theta_e
302 302 302 303 303 303 304 304 304 304 305 305 306 306 307 307 308 303 298 297 298 292 293 294 295 291 292 291 286 285 286 287 286 281 283 286 285 287 285 287 286 285 286 288 287 284 285 297 297 291 293 297 298 299
302 302 302 302 303 303 303 303 304 304 305 305 306 306 307 308 308 306 297 297 301 295 293 297 297 298 297 295 292 290 290 291 288 287 288 289 287 288 287 283 289 285 287 287 290 291 297 297 295 298 298 297 298 298
301 302 302 302 302 303 303 303 304 304 305 305 306 307 308 308 308 306 299 299 298 295 292 288 290 296 300 299 299 287 289 294 290 295 289 290 285 288 282 285 286 289 293 290 290 296 296 297 297 298 300 298 300 301
301 302 301 302 302 302 303 303 303 304 305 305 306 306 307 307 307 305 299 298 298 295 288 287 296 294 301 299 298 297 293 293 294 292 292 291 286 292 287 289 287 291 292 289 290 295 296 298 296 298 299 300 301 302
301 301 301 301 302 302 302 303 303 304 305 306 306 307 306 305 307 301 297 297 297 292 284 286 293 297 297 297 297 297 293 291 292 291 287 286 290 292 292 292 288 293 289 287 287 294 294 295 298 299 299 299 301 301
301 301 301 301 302 302 302 303 303 304 305 306 307 307 307 306 305 295 289 296 297 297 291 282 291 294 297 299 298 297 294 295 294 291 290 289 291 291 286 284 293 295 297 297 294 298 297 299 301 302 299 300 302 302
301 301 301 301 302 302 302 303 304 304 305 305 306 306 307 306 295 292 291 295 299 297 289 287 285 294 297 299 298 296 296 291 290 290 287 287 289 290 288 284 292 296 298 298 300 299 296 299 298 301 301 302 304 303
300 300 301 301 301 301 302 302 304 304 304 305 305 307 307 306 301 295 298 302 300 293 293 286 285 289 297 293 293 293 290 288 288 288 288 286 288 287 283 291 293 295 296 298 298 300 299 300 300 301 301 302 303 302
300 300 301 301 301 301 301 302 303 304 304 304 307 306 300 295 292 295 307 302 296 293 284 286 286 284 296 295 294 293 291 286 288 285 288 288 283 283 290 291 292 292 293 296 298 301 298 297 298 299 300 300 302 303
300 300 301 301 301 301 301 302 304 304 303 305 299 295 289 296 307 304 296 292 291 292 291 288 292 286 292 293 292 290 290 287 284 285 290 286 287 293 295 294 294 294 295 297 296 297 299 299 298 298 299 300 302 305
300 300 300 301 301 301 301 302 304 303 301 294 291 290 296 302 296 289 285 284 286 285 292 292 292 290 297 290 288 290 285 286 279 285 287 286 286 292 296 295 296 296 295 296 298 298 300 302 300 298 298 300 301 306
299 300 300 300 301 301 301 302 302 295 292 294 297 300 298 292 287 285 280 285 284 282 290 289 290 290 294 294 287 287 283 283 279 290 285 284 290 295 295 297 298 298 298 297 298 298 299 302 303 298 298 299 301 305
298 299 300 300 300 300 301 302 300 301 300 302 298 293 286 285 279 281 280 281 283 288 290 289 287 289 290 290 288 286 277 279 288 283 284 287 292 295 297 297 298 299 299 299 299 300 300 301 302 305 301 300 302 302
298 298 300 300 300 301 302 299 300 299 297 291 287 279 280 280 280 286 284 285 289 289 290 288 287 284 287 284 288 283 282 284 274 274 282 289 292 295 297 298 299 299 300 299 299 300 300 300 301 304 305 305 302 301
298 299 299 299 301 300 299 300 300 297 295 292 286 279 281 287 288 289 290 289 290 290 288 286 287 287 281 282 287 280 280 273 276 281 287 292 294 294 295 297 299 299 300 300 301 300 300 300 301 302 303 304 306 306
298 298 296 300 300 298 299 298 297 300 296 294 288 285 288 287 287 287 288 288 290 289 289 288 282 282 280 284 280 281 280 274 281 285 291 293 292 293 295 298 300 300 301 301 302 302 302 302 301 301 302 303 306 306
297 291 297 298 298 299 299 294 297 298 295 290 287 291 289 287 287 289 288 289 290 288 283 285 281 281 283 277 277 284 283 283 289 291 293 293 292 293 296 298 299 300 301 301 302 302 302 304 304 302 300 302 305 307
292 293 297 297 298 296 295 297 295 292 289 289 286 289 290 292 290 288 289 290 290 289 288 285 287 280 278 275 278 285 287 291 292 293 293 293 294 297 297 297 299 299 300 301 301 302 302 303 304 303 303 303 304 305
295 295 297 299 297 292 290 294 295 288 289 290 290 291 291 291 291 291 291 291 292 292 291 288 284 281 281 286 286 289 292 291 291 294 294 294 296 300 297 297 298 298 299 300 301 301 302 303 303 305 306 307 305 306
297 298 298 299 298 292 291 291 297 288 285 290 290 289 290 290 291 291 291 291 290 289 287 284 285 287 287 290 292 293 292 293 293 293 294 294 295 296 296 295 296 296 297 299 301 298 302 302 304 305 305 304 306 305
296 296 297 296 295 294 292 291 291 288 289 290 292 291 291 290 289 289 289 292 288 284 282 288 289 291 293 294 294 293 293 294 293 295 294 292 294 292 293 294 294 295 294 296 298 300 300 301 302 305 304 304 304 303
294 297 293 295 291 292 289 291 290 291 288 289 288 289 285 283 283 288 290 289 288 289 289 289 291 293 293 294 295 296 295 296 294 295 295 294 295 293 292 293 293 293 294 295 296 298 301 302 301 304 303 303 303 303
294 294 291 291 290 289 288 293 290 289 285 285 284 283 282 281 288 290 285 290 291 291 292 292 294 294 295 296 296 296 295 295 295 294 295 295 295 294 294 293 293 292 293 295 296 297 300 297 301 301 302 302 302 302
296 290 287 286 286 283 288 285 281 282 281 280 279 282 283 284 287 284 284 286 288 290 292 294 294 293 294 294 294 294 294 295 294 294 295 293 294 293 294 293 293 293 293 295 296 297 299 300 297 301 300 300 298 298
286 282 281 278 283 285 283 284 283 280 284 282 281 282 281 283 279 281 284 287 287 290 291 292 292 291 292 292 292 293 294 295 294 292 293 294 294 295 294 293 293 293 294 296 296 296 296 296 297 298 297 296 296 295
278 279 278 281 280 282 283 283 283 283 282 282 282 283 279 280 281 281 285 287 287 288 291 292 292 290 290 292 292 293 294 293 295 293 292 292 292 292 291 290 290 291 294 295 296 296 295 294 294 294 293 293 290 294
278 278 281 287 281 285 283 285 283 280 282 282 280 280 281 281 281 285 288 289 290 292 293 293 292 292 291 290 292 292 292 293 294 294 295 294 294 294 293 291 291 292 295 296 296 296 294 292 292 292 292 292 291 292
281 281 279 278 282 282 283 281 281 280 283 285 285 283 283 282 283 289 289 292 290 291 291 290 292 289 289 290 291 292 293 296 298 296 293 293 293 293 293 294 292 287 290 291 293 293 292 292 291 291 290 290 289 290
283 281 283 279 281 279 281 281 281 285 289 288 284 282 287 291 292 292 293 291 294 292 289 287 290 293 293 293 292 291 292 291 290 287 286 285 286 288 290 293 294 294 292 289 284 287 289 290 291 290 289 289 288 288
282 283 280 280 280 280 282 285 286 288 288 289 289 290 289 290 294 295 293 291 290 290 290 288 288 290 290 290 287 287 286 286 288 288 286 286 287 288 289 290 292 291 291 290 289 288 284 288 287 288 287 286 284 283
283 283 281 279 281 284 287 289 287 287 287 287 289 287 287 291 293 294 291 291 290 291 293 292 292 293 291 289 286 284 282 283 284 285 285 286 286 287 288 290 291 291 290 289 288 286 285 284 284 283 283 282 282 281
281 281 281 279 279 285 287 284 283 284 285 285 285 287 288 289 288 289 291 291 291 290 287 290 289 287 286 285 283 283 281 282 282 283 284 284 284 286 288 289 289 289 287 286 285 283 282 281 282 282 281 281 281 279
280 284 284 283 279 281 285 283 281 281 280 278 284 286 286 285 284 288 290 290 290 289 290 290 291 289 288 286 284 284 283 283 280 280 280 280 280 283 287 288 288 287 285 283 282 281 281 282 282 281 281 280 279 278
Wind_Speed
21 22 24 25 25 24 23 23 23 23 24 24 21 20 17 16 12 2 3 5 3 4 12 8 4 6 7 4 3 5 5 4 4 6 2 1 1 2 2 3 0 3 6 3 4 5 3 22 8 10 7 10 14 18
22 22 24 25 26 25 24 24 23 23 23 23 21 20 18 14 12 2 3 1 2 4 9 10 16 20 15 18 2 2 2 2 2 2 3 3 2 1 1 4 3 4 3 4 4 3 1 7 4 5 5 8 13 17
23 23 24 25 26 26 25 25 24 24 23 22 21 20 17 14 10 5 2 1 2 4 6 3 6 5 3 12 11 3 3 3 2 4 2 2 2 1 3 2 1 3 4 2 8 4 11 10 4 7 12 11 15 15
22 23 24 25 26 26 26 25 25 24 24 22 20 17 14 12 10 5 2 2 1 3 4 9 3 8 5 6 11 11 3 2 1 1 2 2 2 3 3 3 3 3 3 4 5 9 13 1 17 16 18 16 16 18
22 24 24 25 27 27 26 26 26 26 24 23 21 18 14 11 9 3 3 4 4 3 4 7 12 6 6 6 9 7 3 1 2 3 2 3 2 2 1 1 1 2 1 1 1 14 8 10 13 19 15 16 17 18
21 23 24 25 26 27 27 27 27 27 25 23 23 19 14 9 2 1 4 1 5 4 2 5 5 6 5 2 4 7 5 4 3 3 3 3 3 2 2 2 7 11 10 11 6 9 11 16 16 13 11 14 15 17
21 23 25 25 26 27 28 28 28 27 27 25 22 18 12 8 3 3 5 4 6 2 1 5 5 5 4 3 2 2 0 3 3 3 3 3 2 2 3 1 10 3 10 12 11 10 10 11 8 14 12 13 10 12
21 22 24 25 26 27 27 28 29 29 28 27 24 16 5 5 1 4 3 6 6 2 1 3 6 5 7 4 3 3 3 1 1 2 2 2 4 2 3 8 10 13 16 6 11 12 10 17 12 11 10 9 10 13
21 22 23 25 26 27 27 27 28 30 31 26 16 5 3 3 1 4 1 7 2 4 1 2 4 4 6 3 2 4 3 3 2 1 2 2 4 4 8 13 14 11 10 12 14 16 9 16 12 10 10 11 5 10
20 22 23 24 25 26 26 27 25 28 31 16 4 4 4 3 9 4 4 3 3 1 1 3 1 4 3 2 2 3 3 2 2 2 3 2 3 2 5 10 9 10 10 10 11 11 9 12 12 9 7 8 6 5
20 22 24 25 24 25 25 25 24 25 10 5 5 2 4 12 2 3 2 3 2 3 3 5 6 5 1 2 2 2 3 3 3 3 4 2 1 3 9 12 12 9 8 10 10 11 13 16 15 10 5 7 8 6
19 21 24 25 24 24 24 22 20 5 2 5 5 6 3 4 4 3 2 4 1 4 4 3 4 1 2 2 2 2 2 2 3 5 3 3 4 12 13 15 13 12 12 9 9 11 13 13 13 12 8 7 8 6
20 21 24 27 25 24 22 18 20 17 11 1 2 3 3 2 6 3 3 5 3 3 5 4 4 1 1 3 2 2 4 3 5 3 4 2 10 13 12 12 13 12 12 11 12 11 12 14 14 12 8 7 7 7
20 22 24 29 27 21 18 24 22 13 2 2 2 5 3 3 3 5 5 5 6 5 6 3 1 2 1 4 2 4 3 2 6 6 3 5 12 12 11 12 11 13 15 15 13 12 14 13 13 13 12 9 8 7
19 22 25 27 12 19 25 26 24 3 3 3 3 4 5 5 4 5 5 3 5 4 2 2 2 2 3 3 2 3 6 5 1 3 4 8 14 15 14 10 9 8 11 10 10 10 10 11 12 12 12 9 7 7
18 20 6 8 19 26 27 19 3 3 1 3 4 1 3 1 5 3 3 5 3 3 1 3 1 3 3 2 3 0 3 3 5 4 7 10 12 12 13 13 12 11 10 12 10 9 11 11 11 12 11 11 9 6
14 6 8 17 23 28 24 3 2 4 5 4 4 3 4 2 5 5 4 5 1 2 1 2 3 4 1 3 1 2 3 5 4 9 7 10 9 11 11 10 10 10 11 9 10 12 11 10 8 9 12 11 9 9
6 6 16 22 18 12 3 3 2 3 6 5 2 5 4 4 3 4 5 3 3 2 3 4 4 2 4 4 3 4 5 4 6 6 5 7 7 8 7 9 11 11 12 13 13 15 15 16 11 5 8 9 9 9
10 13 22 25 10 5 4 5 3 4 7 3 4 3 3 4 4 4 3 3 4 2 4 2 2 3 4 4 5 5 4 3 4 4 5 7 7 6 7 9 11 11 12 13 12 10 12 15 12 7 4 5 7 7
18 21 22 20 7 3 4 6 1 3 4 5 2 3 4 4 3 2 3 3 3 4 2 3 5 5 5 5 5 4 4 3 3 4 3 4 4 5 6 6 6 8 8 9 9 8 9 11 12 11 11 8 5 4
6 4 7 1 2 4 4 4 4 5 4 3 3 3 4 0 2 3 3 2 3 4 3 5 4 4 5 3 3 3 4 3 3 3 3 3 3 4 5 5 5 4 4 6 7 9 9 9 10 8 9 10 9 8
3 7 3 3 3 4 4 5 5 4 2 4 3 3 3 2 3 4 3 2 4 5 5 5 4 4 4 4 5 5 5 4 2 3 6 5 3 3 4 4 4 5 5 4 6 7 8 7 9 10 9 10 14 7
6 3 3 3 4 4 8 3 4 4 3 4 3 2 3 2 4 2 2 4 4 4 4 4 4 6 6 4 3 4 5 3 1 3 4 4 2 2 2 4 4 4 5 5 5 5 6 8 10 10 10 10 10 12
4 3 4 5 7 6 3 4 1 2 2 1 2 4 4 4 1 1 5 4 4 2 4 6 4 4 2 2 3 3 4 3 2 3 2 2 3 2 1 3 4 4 3 4 4 5 6 7 9 7 8 10 11 10
5 7 4 8 4 4 5 3 3 1 5 3 3 4 5 2 2 3 4 4 3 4 3 4 4 4 5 4 2 3 4 4 4 2 3 2 2 0 2 2 3 3 4 5 5 5 6 7 8 8 10 11 12 12
7 7 10 7 4 5 5 4 5 6 3 3 5 4 2 2 2 6 4 3 3 4 4 7 7 4 3 4 4 4 3 2 4 3 2 3 3 1 2 3 3 5 5 3 4 5 6 6 8 11 10 12 12 11
7 7 4 4 3 2 3 1 2 1 3 4 4 2 2 4 6 5 3 3 4 4 4 4 5 5 5 4 3 3 3 3 3 5 4 2 2 3 2 1 2 2 3 5 5 5 5 6 7 8 8 9 11 11
7 3 6 4 4 2 3 2 4 5 4 4 1 4 3 4 5 3 2 3 2 1 4 4 4 4 4 4 5 5 4 4 7 5 3 3 3 3 4 6 5 8 6 6 5 5 6 6 7 8 8 8 8 9
5 4 4 4 4 4 6 7 6 5 4 4 5 3 3 3 2 5 7 3 3 5 3 3 3 4 6 5 4 4 2 4 6 6 5 1 2 4 4 4 4 5 5 7 8 7 8 7 7 7 8 7 7 7
7 6 5 5 6 8 6 8 5 4 3 4 3 2 3 3 1 3 6 4 2 3 4 4 4 2 3 7 5 5 5 4 3 5 5 4 2 2 4 4 3 4 5 4 4 4 5 6 6 6 7 6 5 6
4 7 4 5 5 5 8 6 4 2 2 4 4 5 4 2 1 1 3 4 2 0 4 6 5 3 4 3 4 5 4 5 5 6 5 4 4 3 2 0 3 4 5 5 3 4 6 7 7 7 8 8 8 7
5 8 6 5 5 5 4 5 5 5 4 4 4 4 3 3 4 2 5 4 4 6 4 6 7 5 5 4 5 6 8 4 4 4 6 3 3 4 4 4 4 5 6 6 5 5 6 6 6 7 8 8 8 8
4 5 5 4 3 4 4 3 2 3 0 3 4 5 5 5 4 1 2 5 3 3 5 4 5 6 8 7 6 6 8 7 8 7 6 8 8 7 5 4 4 5 6 5 5 5 7 9 8 8 9 9 9 8
Wind_Direction
330 331 329 328 328 329 330 329 329 326 323 325 323 318 317 314 319 343 255 194 222 249 283 256 208 223 273 252 271 290 340 359 335 14 306 322 197 94 110 152 49 306 311 164 177 262 278 344 14 55 305 311 316 319
328 329 329 328 327 327 329 328 327 324 323 324 322 319 317 312 299 317 255 170 186 251 263 271 260 259 244 240 275 264 248 266 231 330 305 301 348 142 170 85 95 250 313 327 322 45 31 329 99 268 280 310 325 312
326 326 327 327 326 326 327 327 325 323 323 323 318 317 317 316 299 210 235 280 253 267 291 355 262 276 196 217 195 181 273 222 205 204 227 284 32 318 47 105 299 250 312 313 316 90 309 290 271 337 349 323 320 317
320 321 324 325 325 326 326 326 323 321 323 324 320 320 321 318 319 262 210 176 216 269 292 280 311 291 261 174 193 213 186 34 30 20 261 265 203 167 195 137 218 244 280 342 302 304 330 53 336 337 329 327 323 333
317 317 321 324 324 325 326 326 322 320 325 327 328 323 316 313 305 266 202 213 208 148 257 285 311 266 281 180 208 208 215 217 17 297 285 267 283 139 146 150 209 221 272 352 281 290 287 276 298 312 311 319 326 337
314 315 318 322 323 324 327 325 322 322 326 330 328 322 303 293 327 81 360 274 184 180 291 308 281 306 312 292 247 244 214 197 196 223 241 265 262 77 59 243 186 189 192 217 233 248 288 279 287 298 306 307 329 333
313 315 316 319 322 323 326 325 321 323 326 329 325 312 279 251 120 158 193 203 142 146 325 299 301 276 298 234 112 264 10 201 162 227 253 238 252 160 187 66 359 253 210 238 236 263 301 291 292 305 304 297 320 322
311 314 315 318 320 323 324 326 321 322 325 327 325 315 231 184 311 315 277 245 162 161 240 288 277 334 7 332 338 344 344 35 293 283 323 290 334 31 60 345 333 345 339 314 322 279 249 271 286 283 295 294 341 343
308 312 315 316 319 322 324 325 323 322 322 325 325 129 103 61 53 256 111 108 72 127 203 293 285 308 339 266 23 351 352 341 282 352 320 7 341 23 349 339 332 338 329 311 308 307 276 279 271 285 297 308 337 326
306 309 312 314 317 320 324 321 324 323 320 327 30 39 334 242 326 87 13 12 14 317 100 255 226 270 285 315 31 346 4 358 317 239 266 199 138 323 330 321 306 300 292 317 325 291 323 306 265 261 286 289 277 274
304 306 310 312 315 318 321 321 326 331 340 18 10 315 285 308 57 34 326 60 322 333 231 234 217 268 48 350 348 32 330 325 323 339 326 328 170 303 317 315 314 310 282 279 272 277 289 292 266 273 289 281 284 261
301 303 306 308 311 315 318 318 328 353 279 280 297 288 299 5 26 49 300 323 33 249 279 244 303 175 60 41 48 357 337 338 277 334 302 323 329 330 323 324 327 305 308 302 298 300 301 309 324 270 256 249 273 261
302 303 305 305 309 312 312 311 327 315 311 212 193 272 50 313 30 67 338 304 300 271 259 318 322 355 342 48 80 333 13 317 295 340 331 267 326 317 325 318 307 313 305 301 312 320 318 316 317 316 286 285 258 251
301 302 303 301 309 302 309 324 328 325 285 211 154 318 140 290 234 191 202 223 246 239 283 299 283 82 11 41 357 341 289 359 8 7 315 301 299 295 320 313 318 321 315 319 323 324 315 299 295 305 309 326 283 254
302 305 301 299 281 325 325 324 323 230 173 225 116 231 220 233 252 233 226 277 249 253 298 0 39 93 10 77 32 1 356 346 192 271 264 292 309 313 312 314 317 307 322 316 308 297 288 285 279 279 291 298 307 288
309 311 254 243 317 324 320 323 316 196 225 205 222 205 218 64 282 292 236 256 243 280 100 51 54 47 16 86 44 122 346 256 274 252 288 305 310 311 315 319 329 329 320 328 322 302 289 267 266 266 279 273 270 266
306 235 292 327 324 316 313 245 269 233 220 215 250 209 180 198 217 246 202 248 181 60 280 69 30 208 98 46 311 206 228 239 251 290 297 295 285 297 308 313 319 319 326 321 322 329 322 317 298 273 268 274 270 255
246 277 308 314 326 313 288 238 252 247 249 236 177 220 195 209 202 250 242 227 162 180 123 214 134 99 178 183 258 232 238 251 247 255 269 294 288 296 310 314 322 330 330 335 340 341 345 348 327 263 249 264 270 265
269 287 296 300 303 298 313 286 150 254 239 235 245 228 200 227 220 231 229 217 202 179 124 112 136 207 235 211 213 237 245 216 251 288 285 292 287 277 310 314 315 322 329 329 344 345 344 339 345 332 295 263 261 265
282 281 280 284 257 218 273 268 207 253 262 240 260 232 201 211 223 212 239 212 177 142 145 181 207 208 196 219 206 223 227 251 272 283 317 324 324 322 310 299 302 313 326 330 339 341 353 354 348 353 357 349 356 332
288 265 307 141 196 230 260 269 267 222 254 231 255 181 247 257 239 222 249 158 109 191 223 214 218 229 204 238 218 196 241 215 215 234 254 290 318 328 310 316 331 328 346 341 341 344 5 357 340 342 355 359 351 346
258 318 304 253 240 225 245 230 222 275 282 252 307 203 246 253 240 228 176 171 213 220 199 190 204 180 185 205 220 213 238 267 280 268 296 287 288 337 339 318 340 335 335 334 339 344 350 358 5 353 4 360 360 347
307 203 215 253 251 239 254 140 212 221 224 264 354 248 279 260 227 96 218 213 232 223 207 202 196 177 179 201 199 236 238 217 245 232 264 272 277 290 323 356 348 350 347 334 336 335 353 343 17 16 4 358 354 8
273 237 235 226 200 254 287 259 256 250 281 316 245 251 256 229 190 188 237 226 240 245 192 195 159 130 76 154 210 208 230 220 224 293 293 291 309 299 304 339 330 337 329 305 341 359 5 358 342 16 20 12 11 12
212 234 186 241 232 236 231 250 234 107 242 223 237 264 266 93 156 254 235 245 230 233 200 171 173 187 163 184 193 217 230 182 165 169 319 205 229 315 327 307 343 349 342 7 5 11 15 4 5 17 27 21 17 22
218 233 189 203 230 189 218 237 215 216 203 225 237 254 14 136 190 251 236 235 223 218 185 183 179 163 195 189 172 185 226 166 122 106 3 21 29 84 336 357 358 339 358 348 10 23 21 22 24 22 19 20 21 30
236 248 232 236 196 233 263 302 317 96 237 226 248 287 190 231 236 253 277 240 216 230 201 158 156 166 187 185 146 187 161 163 155 141 130 100 97 111 154 235 315 305 353 38 34 41 40 27 38 34 25 21 26 27
233 238 209 222 211 202 227 207 213 214 222 234 148 193 240 239 240 257 257 301 312 182 144 166 169 161 164 172 159 134 110 124 112 104 90 67 60 35 50 90 78 54 60 50 46 50 61 57 51 51 49 38 26 24
226 209 184 239 217 230 216 204 212 217 203 188 181 213 254 277 21 14 329 286 116 84 33 358 354 81 71 70 64 54 100 142 134 125 114 121 3 344 335 104 107 98 79 74 49 52 66 68 61 56 53 51 46 37
223 174 196 204 199 217 226 192 221 217 192 193 197 192 249 257 258 69 315 300 262 123 114 124 124 352 161 135 122 65 23 21 40 128 150 161 185 360 356 11 98 98 98 86 80 69 54 77 69 55 52 39 34 31
186 173 203 205 237 226 216 214 247 246 219 220 210 204 214 249 260 29 315 315 267 327 86 96 111 144 118 103 117 115 77 9 31 51 60 61 55 43 16 333 107 87 84 89 92 92 89 79 84 82 73 65 54 49
185 195 190 209 248 245 197 198 201 201 215 197 223 201 161 147 220 333 345 328 87 89 83 105 99 69 64 67 59 69 82 76 37 18 24 48 54 31 51 69 71 83 88 89 81 77 80 84 87 90 89 84 80 70
202 204 204 255 272 235 220 171 226 250 207 200 231 193 172 151 164 185 340 15 7 100 105 86 97 112 121 124 126 113 98 93 73 58 63 52 43 35 44 57 69 81 91 88 80 79 81 86 83 83 82 84 85 82